Hlavní strana
METAR-TAF:

METAR-TAF

Letiště :

Cross City, Florida, Spojené státy americké

zeměpisná šířka: 29-33-00N, zeměpisná délka: 083-06-19W, výška: 12 m

Aktuální stav počasí

Zpráva byla vytvořena před 11 minutami, v 18:15 UTC
Severoseverozápadní vítr 4 kt
Teplota 12°C
Vlhkost vzduchu 94%
Tlak 1015 hPa
Viditelnost: 11.3 km
kouřmo

METAR: KCTY 151815Z AUTO 34004KT 7SM BR 12/11 A2997 RMK AO2 T01240115

Čas: 13:26 (18:26 UTC)


TAF: chybějící

Stav a předpovědi počasí z více než 4 000 letišť (zprávy METAR a TAF).

Červené a žluté tečky na mapě představují dostupné meteorologické stanice.

Když kurzor umístíte na tečku, zobrazí se název stanice.

Pak kliknutím zobrazíte stav a předpověď počasí.

Chcete-li změnit mapu, kliknutím na zelené tlačítko se znaménkem +mapu přiblížíte, kliknutím na zelené tlačítko se znaménkem – mapu oddálíte a kliknutím na zelené šipky přejdete na sousední mapy.


METAR-TAF: